Voltar ao catálogo

THORAD DELTA 1 DEB

AtivoSSO
NORAD 8172·DEBRIS·🇺🇸 United States

Lançado Nov 15, 1974 de Vandenberg Space Force Base

Loading…

Próximas Passagens (próximas 24 horas)

TLE

AtualizadoSource: Space-Track

Época: Sep 14, 2026, 12:49 UTC

1 08172U 74089AN  26257.53453966 -.00000049  00000-0 -10648-4 0  9997
2 08172 101.9772 276.8246 0052762 280.1728 235.0019 12.54932675374022

Acompanhe THORAD DELTA 1 DEB em tempo real com AllMySat

Download on the App Store